QPF
0.00 0.00 0.00 0.00 0.00 0.00 0.00 0.00 0.00 0.00 0.00 0.00 0.00 0.00 0.00 0.00 0.00 0.00 0.00 0.00 0.00 0.00 0.00 0.00 0.00 0.00 0.00 0.00 0.00 0.00 0.00 0.00 0.00 0.00 0.00 0.00 0.00 0.00 0.00 0.00 0.00 0.00 0.00 0.00 0.00
0.00 0.00 0.00 0.00 0.00 0.00 0.00 0.00 0.00 0.00 0.00 0.00 0.00 0.00 0.00 0.00 0.00 0.00 0.00 0.00 0.00 0.00 0.00 0.00 0.00 0.00 0.00 0.00 0.00 0.00 0.00 0.00 0.00 0.00 0.00 0.00 0.00 0.00 0.00 0.00 0.00 0.00 0.00 0.00 0.00
0.00 0.00 0.00 0.00 0.00 0.00 0.00 0.00 0.00 0.00 0.00 0.00 0.00 0.00 0.00 0.00 0.00 0.00 0.00 0.00 0.00 0.00 0.00 0.00 0.00 0.00 0.00 0.00 0.00 0.00 0.00 0.00 0.00 0.00 0.00 0.00 0.00 0.00 0.00 0.00 0.00 0.00 0.00 0.00 0.00
0.00 0.00 0.00 0.00 0.00 0.00 0.00 0.00 0.00 0.00 0.00 0.00 0.00 0.00 0.00 0.00 0.00 0.00 0.00 0.00 0.00 0.00 0.00 0.00 0.00 0.00 0.00 0.00 0.00 0.00 0.00 0.00 0.00 0.00 0.00 0.00 0.00 0.00 0.00 0.00 0.00 0.00 0.00 0.00 0.00
0.00 0.00 0.00 0.00 0.00 0.00 0.00 0.00 0.00 0.00 0.00 0.00 0.00 0.00 0.00 0.00 0.00 0.00 0.00 0.00 0.00 0.00 0.00 0.00 0.00 0.00 0.00 0.00 0.00 0.00 0.00 0.00 0.00 0.00 0.00 0.00 0.00 0.00 0.00 0.00 0.00 0.00 0.00 0.00 0.00
0.00 0.00 0.00 0.00 0.00 0.00 0.00 0.00 0.00 0.00 0.00 0.00 0.00 0.00 0.00 0.00 0.00 0.00 0.00 0.00 0.00 0.00 0.00 0.00 0.00 0.00 0.00 0.00 0.00 0.00 0.00 0.00 0.00 0.00 0.00 0.00 0.00 0.00 0.00 0.00 0.00 0.00 0.00 0.00 0.00
0.00 0.00 0.00 0.00 0.00 0.00 0.00 0.00 0.00 0.00 0.00 0.00 0.00 0.00 0.00 0.00 0.00 0.00 0.00 0.00 0.00 0.00 0.00 0.00 0.00 0.00 0.00 0.00 0.00 0.00 0.00 0.00 0.00 0.00 0.00 0.00 0.00 0.00 0.00 0.00 0.00 0.00 0.00 0.00 0.00
0.00 0.00 0.00 0.00 0.00 0.00 0.00 0.00 0.00 0.00 0.00 0.00 0.00 0.00 0.00 0.00 0.00 0.00 0.00 0.00 0.00 0.00 0.00 0.00 0.00 0.00 0.00 0.00 0.00 0.00 0.00 0.00 0.00 0.00 0.00 0.00 0.00 0.00 0.00 0.00 0.00 0.00 0.00 0.00 0.00
0.00 0.00 0.00 0.00 0.00 0.00 0.00 0.00 0.00 0.00 0.00 0.00 0.00 0.00 0.00 0.00 0.00 0.00 0.00 0.00 0.00 0.00 0.00 0.00 0.00 0.00 0.00 0.00 0.00 0.00 0.00 0.00 0.00 0.00 0.00 0.00 0.00 0.00 0.00 0.00 0.00 0.00 0.00 0.00 0.00
0.00 0.00 0.00 0.00 0.00 0.00 0.00 0.00 0.00 0.00 0.00 0.00 0.00 0.00 0.00 0.00 0.00 0.00 0.00 0.00 0.00 0.00 0.00 0.00 0.00 0.00 0.00 0.00 0.00 0.00 0.00 0.00 0.00 0.00 0.00 0.00 0.00 0.00 0.00 0.00 0.00 0.00 0.00 0.00 0.00
0.00 0.00 0.00 0.00 0.00 0.00 0.00 0.00 0.00 0.00 0.00 0.00 0.00 0.00 0.00 0.00 0.00 0.00 0.00 0.00 0.00 0.00 0.00 0.00 0.00 0.00 0.00 0.00 0.00 0.00 0.00 0.00 0.00 0.00 0.00 0.00 0.00 0.00 0.00 0.00 0.00 0.00 0.00 0.00 0.00
0.00 0.00 0.00 0.00 0.00 0.00 0.00 0.00 0.00 0.00 0.00 0.00 0.00 0.00 0.00 0.00 0.00 0.00 0.00 0.00 0.00 0.00 0.00 0.00 0.00 0.00 0.00 0.00 0.00 0.00 0.00 0.00 0.00 0.00 0.00 0.00 0.00 0.00 0.00 0.00 0.00 0.00 0.00 0.00 0.00
0.00 0.00 0.00 0.00 0.00 0.00 0.00 0.00 0.00 0.00 0.00 0.00 0.00 0.00 0.00 0.00 0.00 0.00 0.00 0.00 0.00 0.00 0.00 0.00 0.00 0.00 0.00 0.00 0.00 0.00 0.00 0.00 0.00 0.00 0.00 0.00 0.00 0.00 0.00 0.00 0.00 0.00 0.00 0.00 0.00
0.00 0.00 0.00 0.00 0.00 0.00 0.00 0.00 0.00 0.00 0.00 0.00 0.00 0.00 0.00 0.00 0.00 0.00 0.00 0.00 0.00 0.00 0.00 0.00 0.00 0.00 0.00 0.00 0.00 0.00 0.00 0.00 0.00 0.00 0.00 0.00 0.00 0.00 0.00 0.00 0.00 0.00 0.00 0.01 0.04
0.00 0.00 0.00 0.00 0.00 0.00 0.00 0.00 0.00 0.00 0.00 0.00 0.00 0.00 0.00 0.00 0.00 0.00 0.00 0.00 0.00 0.00 0.00 0.00 0.00 0.00 0.00 0.00 0.00 0.00 0.00 0.00 0.00 0.00 0.00 0.00 0.00 0.00 0.00 0.00 0.00 0.00 0.00 0.04 0.07
0.00 0.00 0.00 0.00 0.00 0.00 0.00 0.00 0.00 0.00 0.00 0.00 0.00 0.00 0.00 0.00 0.00 0.00 0.00 0.00 0.00 0.00 0.00 0.00 0.00 0.00 0.00 0.00 0.00 0.00 0.00 0.00 0.00 0.00 0.00 0.00 0.00 0.00 0.00 0.00 0.00 0.00 0.00 0.01 0.03
0.00 0.00 0.00 0.00 0.00 0.00 0.00 0.00 0.00 0.00 0.00 0.00 0.00 0.00 0.00 0.00 0.00 0.00 0.00 0.00 0.00 0.00 0.00 0.00 0.00 0.00 0.00 0.00 0.00 0.00 0.00 0.00 0.00 0.00 0.00 0.00 0.00 0.00 0.00 0.00 0.00 0.00 0.00 0.00 0.00
0.00 0.00 0.00 0.00 0.00 0.00 0.00 0.00 0.00 0.00 0.00 0.00 0.00 0.00 0.00 0.00 0.00 0.00 0.00 0.00 0.00 0.00 0.00 0.00 0.00 0.00 0.00 0.00 0.00 0.00 0.00 0.00 0.00 0.00 0.00 0.00 0.00 0.00 0.00 0.00 0.00 0.00 0.00 0.00 0.00
0.00 0.00 0.00 0.00 0.00 0.00 0.00 0.00 0.00 0.00 0.00 0.00 0.00 0.00 0.00 0.00 0.00 0.00 0.00 0.00 0.00 0.00 0.00 0.00 0.00 0.00 0.00 0.00 0.00 0.00 0.00 0.00 0.00 0.00 0.00 0.00 0.00 0.00 0.00 0.00 0.00 0.00 0.00 0.00 0.00
0.00 0.00 0.00 0.00 0.00 0.00 0.00 0.00 0.00 0.00 0.00 0.00 0.00 0.00 0.00 0.00 0.00 0.00 0.00 0.00 0.00 0.00 0.00 0.00 0.00 0.00 0.00 0.00 0.00 0.00 0.00 0.00 0.00 0.00 0.00 0.00 0.00 0.00 0.00 0.00 0.00 0.00 0.00 0.00 0.00
0.00 0.00 0.00 0.00 0.00 0.00 0.00 0.00 0.00 0.00 0.00 0.00 0.00 0.00 0.00 0.00 0.00 0.00 0.00 0.00 0.00 0.00 0.00 0.00 0.00 0.00 0.00 0.00 0.00 0.00 0.00 0.00 0.00 0.00 0.00 0.00 0.00 0.00 0.00 0.00 0.00 0.00 0.00 0.00 0.00
0.00 0.00 0.00 0.00 0.00 0.00 0.00 0.00 0.00 0.00 0.00 0.00 0.00 0.00 0.00 0.00 0.00 0.00 0.00 0.00 0.00 0.00 0.00 0.00 0.00 0.00 0.00 0.00 0.00 0.00 0.00 0.00 0.00 0.00 0.00 0.00 0.00 0.00 0.00 0.00 0.00 0.00 0.00 0.00 0.00
0.00 0.00 0.00 0.00 0.00 0.00 0.00 0.00 0.00 0.00 0.00 0.00 0.00 0.00 0.00 0.00 0.00 0.00 0.00 0.00 0.00 0.00 0.00 0.00 0.00 0.00 0.00 0.00 0.00 0.00 0.00 0.00 0.00 0.00 0.00 0.00 0.00 0.00 0.00 0.00 0.00 0.00 0.00 0.00 0.00
0.00 0.00 0.00 0.00 0.00 0.00 0.00 0.00 0.00 0.00 0.00 0.00 0.00 0.00 0.00 0.00 0.00 0.00 0.00 0.00 0.00 0.00 0.00 0.00 0.00 0.00 0.00 0.00 0.00 0.00 0.00 0.00 0.00 0.00 0.00 0.00 0.00 0.00 0.00 0.00 0.00 0.00 0.00 0.00 0.00
0.00 0.00 0.00 0.00 0.00 0.00 0.00 0.00 0.00 0.00 0.00 0.00 0.00 0.00 0.00 0.00 0.00 0.00 0.00 0.00 0.00 0.00 0.00 0.00 0.00 0.00 0.00 0.00 0.00 0.00 0.00 0.00 0.00 0.00 0.00 0.00 0.00 0.00 0.00 0.00 0.00 0.00 0.00 0.00 0.00
0.00 0.00 0.00 0.00 0.00 0.00 0.00 0.00 0.00 0.00 0.00 0.00 0.00 0.00 0.00 0.00 0.00 0.00 0.00 0.00 0.00 0.00 0.00 0.00 0.00 0.00 0.00 0.00 0.00 0.00 0.00 0.00 0.00 0.00 0.00 0.00 0.00 0.00 0.00 0.00 0.00 0.00 0.00 0.00 0.00
0.00 0.00 0.00 0.00 0.00 0.00 0.00 0.00 0.00 0.00 0.00 0.00 0.00 0.00 0.00 0.00 0.00 0.00 0.00 0.00 0.00 0.00 0.00 0.00 0.00 0.00 0.00 0.00 0.00 0.00 0.00 0.00 0.00 0.00 0.00 0.00 0.00 0.00 0.00 0.00 0.00 0.00 0.00 0.00 0.00
MSLP
1015.30 1014.96 1014.56 1014.26 1013.91 1013.54 1013.12 1012.54 1012.05 1011.51 1011.08 1010.77 1010.32 1009.92 1009.38 1008.74 1007.57 1007.08 1006.25 1004.18 1004.06 1003.99 1004.09 1004.31 1005.06 1004.88 1005.26 1005.26 1005.06 1005.17 1006.20 1006.73 1006.55 1006.69 1007.23 1007.42 1007.67 1008.07 1008.38 1008.84 1009.27 1009.83 1010.50 1011.22 1012.34
1015.33 1014.93 1014.58 1014.25 1013.81 1013.40 1013.06 1012.55 1011.94 1011.40 1010.85 1010.55 1010.16 1009.71 1009.27 1008.80 1008.02 1006.24 1003.93 1003.61 1003.63 1003.80 1004.05 1004.26 1004.46 1004.48 1004.90 1004.88 1004.94 1005.15 1005.85 1005.59 1005.49 1005.92 1006.67 1007.28 1007.75 1008.08 1008.59 1009.09 1009.95 1010.52 1010.96 1011.51 1012.28
1015.38 1014.96 1014.59 1014.17 1013.84 1013.40 1012.88 1012.48 1011.98 1011.40 1010.90 1010.39 1009.99 1009.46 1009.05 1008.76 1007.75 1005.10 1003.61 1003.35 1003.76 1003.78 1003.88 1004.10 1004.26 1004.28 1004.54 1004.59 1004.54 1004.67 1004.82 1004.79 1005.16 1005.62 1006.21 1007.18 1007.78 1008.07 1008.65 1009.20 1009.69 1010.44 1011.19 1011.99 1012.55
1015.51 1015.14 1014.63 1014.19 1013.86 1013.32 1012.85 1012.42 1011.97 1011.50 1010.94 1010.34 1009.94 1009.42 1008.96 1008.65 1006.92 1004.64 1003.91 1003.21 1003.46 1003.81 1003.98 1003.98 1004.08 1004.28 1004.55 1004.56 1004.29 1004.21 1004.10 1004.60 1005.16 1005.78 1006.61 1007.27 1007.78 1008.33 1008.69 1008.96 1009.40 1010.65 1011.25 1011.87 1012.44
1015.61 1015.21 1014.75 1014.18 1013.64 1013.08 1012.61 1012.23 1011.69 1011.37 1010.97 1010.42 1009.92 1009.47 1008.75 1008.01 1005.55 1004.18 1003.91 1003.74 1003.64 1003.79 1003.79 1004.12 1004.15 1004.29 1004.47 1004.30 1003.86 1004.04 1004.61 1004.92 1005.30 1005.82 1006.59 1007.23 1008.13 1008.56 1009.20 1009.36 1010.11 1010.86 1011.57 1011.98 1012.35
1015.60 1015.17 1014.68 1014.05 1013.39 1012.84 1012.37 1011.88 1011.46 1011.02 1010.85 1010.37 1009.84 1009.63 1009.09 1007.32 1003.97 1003.95 1003.93 1003.64 1003.44 1003.53 1003.65 1003.85 1003.89 1003.83 1004.10 1004.15 1004.07 1004.04 1004.67 1005.54 1005.82 1006.31 1006.88 1007.45 1008.24 1008.53 1009.51 1009.80 1010.38 1010.91 1011.43 1011.95 1012.33
1015.48 1015.05 1014.57 1013.99 1013.34 1012.62 1011.95 1011.40 1011.00 1010.64 1010.42 1010.18 1009.80 1009.50 1008.72 1005.36 1003.81 1003.85 1003.71 1003.41 1003.26 1003.28 1003.45 1003.56 1003.43 1003.90 1003.85 1004.13 1003.97 1004.44 1005.14 1005.93 1006.35 1006.56 1007.22 1007.58 1008.65 1008.92 1009.36 1009.92 1010.43 1010.94 1011.31 1011.61 1011.95
1015.38 1014.80 1014.26 1013.74 1013.09 1012.32 1011.55 1011.02 1010.43 1010.04 1009.83 1009.81 1009.64 1009.34 1007.39 1003.98 1003.76 1003.67 1003.22 1003.10 1003.06 1003.12 1003.09 1003.10 1003.36 1003.89 1004.12 1004.26 1004.41 1005.14 1005.49 1006.31 1006.42 1006.55 1007.16 1007.45 1008.67 1009.04 1009.38 1009.80 1010.41 1010.78 1011.02 1011.17 1011.20
1015.42 1014.88 1014.15 1013.40 1012.63 1011.80 1011.02 1010.54 1009.90 1009.46 1009.46 1009.52 1009.49 1008.90 1006.13 1003.82 1003.59 1003.17 1002.88 1002.81 1002.81 1002.92 1002.87 1003.00 1003.56 1004.47 1004.60 1005.22 1005.78 1006.23 1006.24 1006.40 1006.45 1006.56 1007.11 1007.85 1008.51 1008.76 1009.48 1009.72 1010.18 1010.48 1010.56 1010.82 1011.16
1015.30 1014.78 1014.18 1013.41 1012.58 1011.54 1010.42 1009.83 1009.54 1009.56 1009.50 1009.41 1008.99 1008.73 1005.61 1004.73 1004.18 1003.31 1002.76 1002.74 1002.75 1002.87 1003.14 1003.52 1004.38 1005.04 1005.85 1006.18 1006.99 1006.76 1006.53 1006.31 1006.14 1006.41 1007.10 1007.68 1008.15 1008.64 1009.08 1009.51 1009.47 1009.80 1010.18 1010.44 1010.67
1015.33 1014.73 1014.01 1013.27 1012.47 1011.47 1010.22 1009.55 1010.06 1009.76 1009.15 1008.35 1007.95 1007.25 1005.76 1004.87 1004.14 1003.39 1002.90 1002.84 1002.97 1003.42 1004.00 1004.40 1005.10 1005.44 1005.87 1006.30 1006.35 1006.56 1006.64 1006.29 1005.67 1005.43 1006.07 1006.86 1007.86 1008.47 1008.75 1009.21 1009.18 1009.35 1009.94 1009.95 1009.85
1015.21 1014.64 1013.93 1013.06 1012.33 1011.49 1011.20 1010.92 1010.94 1011.09 1009.62 1007.35 1006.90 1006.63 1005.62 1005.29 1005.04 1003.62 1003.05 1003.14 1003.37 1004.08 1004.61 1005.18 1005.25 1005.08 1005.28 1005.67 1005.95 1006.16 1005.95 1005.84 1005.30 1004.97 1005.77 1006.79 1007.76 1008.16 1008.42 1008.07 1008.57 1008.73 1009.28 1009.56 1010.03
1015.22 1014.59 1013.87 1012.90 1012.07 1011.75 1011.92 1011.08 1010.73 1010.68 1010.25 1007.04 1006.18 1005.77 1005.04 1005.07 1004.64 1003.63 1003.21 1003.24 1003.81 1004.47 1004.86 1005.19 1005.05 1004.75 1004.88 1005.23 1005.38 1005.53 1005.53 1005.65 1005.91 1005.81 1006.45 1007.18 1008.14 1008.33 1008.19 1008.36 1008.24 1008.63 1008.85 1009.74 1010.39
1015.23 1014.67 1014.14 1013.02 1012.20 1012.60 1011.48 1010.73 1010.53 1010.59 1009.93 1007.08 1005.72 1004.57 1004.60 1004.36 1003.89 1002.87 1002.88 1003.12 1003.93 1004.43 1005.23 1005.18 1004.53 1004.36 1004.32 1004.66 1004.90 1005.09 1004.99 1005.20 1005.94 1006.71 1007.17 1007.22 1008.37 1008.37 1008.25 1008.30 1008.21 1008.53 1008.84 1009.86 1010.03
1015.25 1014.77 1014.41 1014.18 1013.87 1012.84 1011.02 1010.59 1010.17 1010.16 1009.10 1006.01 1004.87 1004.10 1004.29 1004.32 1003.49 1002.88 1002.66 1002.84 1003.73 1004.38 1004.99 1004.75 1004.31 1003.99 1004.00 1004.18 1004.46 1004.84 1004.65 1005.29 1005.68 1006.81 1007.45 1008.14 1008.52 1008.43 1008.63 1008.59 1008.30 1008.26 1009.03 1009.54 1009.72
1015.00 1014.69 1014.42 1014.21 1014.02 1011.63 1010.87 1010.49 1010.11 1010.32 1008.13 1005.62 1004.50 1004.19 1004.41 1004.09 1003.39 1002.92 1002.84 1002.88 1003.44 1004.24 1004.74 1004.81 1004.27 1003.92 1003.74 1003.73 1003.94 1004.22 1004.87 1005.80 1006.88 1007.53 1008.49 1008.70 1008.98 1009.12 1008.89 1008.56 1008.48 1008.67 1008.88 1009.29 1009.25
1014.40 1014.08 1014.35 1014.07 1012.32 1011.12 1010.95 1010.75 1011.12 1009.93 1007.49 1006.30 1005.33 1004.76 1004.50 1004.25 1003.79 1003.30 1003.41 1003.64 1004.06 1004.98 1005.25 1005.22 1004.61 1003.89 1003.58 1003.79 1003.93 1004.62 1006.15 1007.22 1008.14 1008.96 1009.35 1009.14 1009.53 1008.99 1008.61 1008.61 1008.73 1008.39 1008.70 1009.28 1009.63
1013.62 1013.01 1012.44 1011.98 1011.35 1011.29 1011.32 1011.21 1011.29 1009.37 1008.05 1006.56 1005.79 1005.11 1004.92 1004.41 1004.13 1004.03 1004.15 1004.59 1004.69 1005.02 1006.10 1005.99 1005.13 1003.94 1003.50 1003.64 1004.01 1004.96 1006.17 1007.53 1008.81 1009.97 1009.78 1009.39 1009.49 1008.22 1008.70 1008.85 1008.70 1008.45 1009.02 1009.52 1010.34
1012.93 1012.51 1012.35 1010.85 1011.13 1011.49 1011.62 1011.93 1010.64 1009.51 1008.22 1007.20 1006.10 1005.77 1005.30 1004.66 1004.39 1004.59 1004.85 1005.04 1004.87 1005.00 1005.69 1006.05 1005.41 1004.10 1003.37 1003.12 1003.68 1005.05 1006.05 1006.84 1008.66 1010.23 1010.38 1010.33 1009.58 1008.16 1008.19 1008.91 1009.08 1009.55 1009.69 1010.36 1010.81
1013.40 1012.97 1011.71 1010.70 1010.91 1011.27 1011.62 1011.44 1010.41 1009.15 1007.99 1007.31 1007.00 1006.46 1006.07 1005.36 1005.01 1004.93 1004.85 1004.31 1004.52 1004.64 1004.50 1005.63 1005.68 1004.51 1003.62 1003.35 1003.71 1004.24 1005.45 1007.16 1008.65 1010.19 1011.00 1010.70 1010.15 1009.15 1008.52 1008.75 1009.44 1009.86 1010.37 1010.60 1010.88
1013.44 1012.75 1011.37 1010.92 1011.26 1011.35 1011.77 1011.16 1009.86 1008.42 1007.99 1007.39 1007.06 1006.82 1006.36 1005.86 1005.43 1005.10 1004.69 1003.84 1003.58 1004.22 1004.60 1005.50 1005.93 1005.41 1004.35 1004.15 1004.27 1004.93 1005.73 1007.39 1008.72 1009.60 1010.52 1010.73 1009.76 1007.70 1007.93 1008.87 1009.66 1010.12 1010.73 1011.04 1011.20
1013.97 1013.04 1011.55 1011.36 1011.63 1012.09 1011.58 1010.35 1009.15 1008.15 1007.50 1007.16 1006.85 1006.60 1006.31 1005.82 1005.37 1005.01 1004.35 1003.17 1002.40 1003.27 1004.64 1004.91 1005.65 1005.99 1005.09 1004.12 1004.13 1004.44 1005.28 1006.37 1008.33 1009.84 1010.22 1009.97 1008.46 1007.49 1007.97 1009.03 1009.62 1010.70 1011.33 1011.62 1011.74
1014.96 1013.78 1011.74 1011.57 1011.90 1011.99 1011.03 1009.92 1009.00 1008.21 1007.63 1007.20 1006.73 1006.16 1005.80 1005.72 1005.50 1004.52 1003.53 1002.02 1002.52 1003.00 1003.51 1004.54 1005.51 1005.87 1005.57 1004.84 1004.56 1004.53 1004.91 1005.70 1006.81 1008.02 1009.01 1009.48 1008.37 1007.97 1008.64 1009.42 1010.03 1010.73 1011.51 1012.03 1012.21
1015.20 1014.33 1012.70 1012.17 1012.10 1011.59 1011.04 1010.10 1009.13 1008.12 1007.67 1007.26 1006.79 1006.16 1005.98 1005.67 1005.24 1004.50 1003.41 1002.19 1002.12 1002.40 1002.32 1003.20 1004.95 1005.33 1005.38 1004.97 1004.14 1004.29 1004.45 1005.23 1005.85 1007.31 1008.14 1008.09 1007.73 1008.18 1008.88 1009.77 1010.44 1010.86 1011.39 1011.95 1012.57
1015.52 1015.36 1014.48 1013.37 1012.64 1011.78 1011.04 1010.25 1009.42 1008.67 1007.85 1007.25 1006.75 1006.52 1006.27 1006.03 1005.32 1004.69 1003.70 1002.94 1002.33 1002.46 1002.97 1003.22 1004.68 1004.89 1004.42 1004.04 1004.00 1003.74 1003.89 1004.56 1005.33 1005.41 1006.18 1006.14 1007.14 1006.81 1007.83 1008.92 1010.05 1011.02 1011.83 1012.44 1012.96
1016.41 1016.11 1014.83 1013.84 1012.97 1012.00 1011.20 1010.47 1009.74 1009.03 1008.57 1007.65 1007.21 1006.68 1006.49 1006.24 1005.19 1004.81 1004.33 1003.53 1002.93 1002.85 1003.18 1003.90 1004.53 1004.80 1004.61 1004.09 1003.80 1003.71 1003.45 1003.82 1004.33 1004.66 1005.24 1005.74 1006.37 1006.35 1007.73 1008.99 1010.09 1010.97 1011.73 1012.31 1013.11
1017.11 1016.49 1015.92 1014.29 1013.21 1012.38 1011.28 1010.54 1009.87 1009.54 1008.46 1007.80 1007.53 1007.35 1006.35 1005.33 1005.11 1004.52 1004.26 1003.70 1003.26 1003.43 1003.87 1004.45 1005.12 1005.59 1005.26 1004.35 1004.02 1003.98 1003.01 1002.96 1003.13 1003.74 1004.40 1005.14 1005.08 1006.24 1007.56 1008.52 1009.29 1010.31 1011.27 1011.92 1012.54
Thickness
5750 5756 5762 5768 5774 5779 5785 5792 5798 5804 5809 5813 5817 5821 5826 5832 5842 5846 5843 5865 5868 5872 5873 5867 5857 5855 5849 5839 5844 5841 5795 5784 5797 5794 5792 5806 5795 5807 5808 5794 5795 5790 5780 5778 5771
5747 5754 5760 5765 5772 5778 5784 5790 5798 5805 5811 5815 5819 5823 5827 5832 5836 5843 5872 5876 5876 5876 5867 5858 5849 5852 5837 5839 5838 5822 5795 5807 5824 5819 5806 5809 5804 5804 5797 5790 5784 5781 5785 5782 5775
5745 5751 5757 5763 5769 5775 5782 5788 5795 5803 5809 5816 5820 5825 5829 5832 5838 5853 5878 5880 5877 5877 5872 5866 5860 5852 5836 5839 5838 5830 5811 5832 5832 5829 5825 5811 5808 5812 5797 5787 5791 5781 5781 5779 5773
5741 5746 5753 5760 5765 5773 5780 5786 5793 5800 5807 5814 5819 5825 5830 5832 5820 5863 5876 5883 5881 5878 5870 5862 5856 5841 5829 5824 5840 5830 5844 5840 5835 5833 5822 5813 5817 5805 5805 5802 5806 5793 5787 5782 5776
5736 5742 5749 5756 5764 5771 5778 5784 5792 5798 5804 5811 5817 5823 5831 5826 5838 5872 5876 5878 5880 5874 5864 5855 5848 5843 5826 5833 5842 5834 5836 5840 5838 5834 5828 5825 5809 5806 5801 5808 5804 5795 5787 5781 5779
5732 5738 5745 5753 5762 5769 5777 5784 5790 5797 5802 5809 5816 5820 5824 5815 5871 5874 5875 5878 5877 5872 5865 5860 5854 5860 5843 5837 5835 5846 5839 5831 5834 5831 5828 5817 5810 5813 5805 5808 5798 5793 5787 5783 5780
5729 5735 5742 5750 5758 5767 5776 5784 5791 5797 5802 5807 5813 5819 5819 5833 5871 5873 5874 5875 5878 5874 5863 5868 5870 5856 5856 5840 5854 5842 5824 5827 5826 5829 5821 5824 5803 5801 5812 5809 5799 5795 5791 5788 5786
5725 5732 5740 5747 5755 5764 5775 5783 5791 5798 5803 5806 5811 5815 5815 5865 5868 5868 5875 5873 5879 5879 5876 5878 5875 5859 5853 5858 5844 5828 5824 5797 5823 5829 5826 5825 5790 5809 5816 5810 5802 5801 5799 5797 5797
5719 5726 5735 5744 5753 5763 5773 5781 5790 5796 5800 5804 5807 5811 5814 5863 5857 5869 5875 5867 5873 5875 5877 5879 5867 5845 5845 5821 5805 5808 5792 5800 5811 5829 5823 5816 5798 5816 5817 5813 5805 5806 5805 5804 5799
5714 5721 5729 5738 5748 5760 5773 5782 5788 5791 5795 5800 5806 5801 5830 5832 5847 5861 5872 5871 5863 5864 5858 5854 5836 5821 5810 5802 5770 5795 5799 5807 5804 5823 5820 5807 5807 5816 5819 5814 5813 5813 5809 5806 5802
5708 5716 5725 5733 5743 5755 5770 5779 5776 5780 5789 5794 5803 5806 5821 5839 5850 5852 5863 5860 5858 5845 5823 5833 5815 5804 5813 5814 5814 5810 5800 5803 5822 5837 5826 5814 5809 5814 5819 5816 5816 5817 5811 5811 5811
5701 5710 5719 5729 5739 5750 5756 5761 5762 5764 5762 5796 5801 5806 5819 5829 5816 5838 5858 5839 5836 5816 5824 5814 5802 5824 5829 5820 5816 5809 5808 5806 5825 5840 5829 5813 5809 5818 5820 5824 5824 5823 5818 5814 5810
5693 5702 5713 5724 5735 5742 5743 5753 5759 5763 5753 5785 5800 5803 5813 5821 5814 5821 5842 5836 5822 5811 5812 5800 5816 5831 5827 5818 5815 5811 5812 5811 5809 5822 5823 5812 5798 5805 5820 5823 5829 5826 5825 5814 5804
5684 5693 5703 5717 5729 5726 5741 5751 5755 5758 5732 5766 5786 5802 5810 5816 5812 5837 5841 5834 5819 5803 5804 5806 5824 5824 5823 5815 5818 5801 5824 5825 5817 5798 5778 5815 5769 5794 5808 5814 5824 5823 5819 5808 5809
5678 5685 5693 5700 5705 5719 5740 5745 5753 5752 5708 5780 5787 5813 5807 5801 5817 5822 5839 5830 5807 5808 5805 5803 5814 5816 5813 5818 5823 5810 5833 5824 5821 5798 5792 5797 5782 5795 5804 5801 5816 5823 5819 5814 5814
5674 5680 5685 5691 5697 5721 5731 5738 5744 5709 5705 5759 5784 5782 5785 5792 5805 5814 5819 5829 5824 5808 5807 5803 5824 5822 5819 5829 5832 5835 5825 5811 5796 5786 5765 5785 5783 5781 5790 5804 5815 5821 5822 5815 5817
5673 5679 5680 5684 5706 5717 5723 5727 5693 5686 5743 5747 5758 5771 5773 5776 5787 5796 5794 5792 5780 5767 5773 5791 5802 5819 5830 5817 5826 5817 5790 5755 5764 5756 5754 5775 5774 5784 5804 5811 5813 5821 5818 5814 5810
5674 5683 5689 5696 5705 5708 5711 5702 5683 5711 5719 5748 5754 5759 5759 5770 5775 5779 5778 5768 5786 5778 5753 5755 5754 5805 5824 5816 5806 5805 5791 5754 5752 5744 5758 5782 5775 5793 5809 5812 5815 5821 5815 5807 5799
5674 5682 5684 5698 5700 5700 5696 5670 5683 5697 5724 5730 5740 5732 5742 5764 5769 5769 5763 5758 5775 5782 5765 5750 5762 5805 5820 5829 5822 5800 5785 5801 5755 5751 5751 5753 5780 5807 5814 5810 5810 5806 5805 5798 5793
5663 5670 5681 5694 5695 5694 5680 5674 5690 5706 5723 5729 5720 5733 5727 5743 5756 5754 5752 5775 5779 5786 5797 5775 5759 5794 5810 5821 5822 5814 5811 5777 5760 5748 5746 5749 5762 5773 5796 5804 5803 5800 5797 5794 5792
5656 5670 5680 5685 5685 5681 5666 5670 5689 5708 5716 5720 5722 5721 5729 5736 5746 5746 5757 5778 5786 5781 5787 5772 5762 5772 5801 5790 5790 5792 5786 5772 5766 5757 5737 5731 5754 5802 5803 5803 5797 5799 5795 5791 5790
5638 5659 5669 5673 5664 5651 5663 5677 5698 5707 5720 5721 5724 5723 5725 5737 5738 5738 5748 5772 5797 5786 5768 5778 5757 5746 5766 5799 5807 5805 5793 5784 5756 5758 5743 5748 5768 5814 5811 5803 5801 5794 5791 5787 5786
5620 5630 5658 5663 5648 5652 5669 5685 5696 5702 5707 5715 5718 5726 5732 5735 5732 5742 5758 5792 5792 5785 5772 5773 5747 5735 5745 5770 5786 5788 5792 5789 5774 5764 5753 5752 5769 5803 5801 5796 5795 5792 5786 5781 5782
5617 5637 5646 5650 5649 5660 5667 5675 5683 5703 5703 5710 5714 5724 5725 5729 5733 5742 5761 5786 5791 5788 5795 5790 5743 5751 5745 5755 5784 5785 5793 5786 5787 5761 5756 5762 5790 5790 5791 5788 5787 5787 5786 5781 5776
5610 5621 5627 5637 5646 5656 5664 5673 5678 5681 5700 5708 5715 5713 5719 5715 5727 5737 5757 5770 5784 5786 5782 5777 5754 5752 5766 5778 5783 5792 5796 5787 5782 5794 5789 5795 5786 5800 5799 5794 5788 5784 5779 5774 5768
5608 5612 5618 5630 5636 5651 5652 5663 5670 5681 5686 5692 5703 5712 5713 5711 5732 5739 5752 5760 5764 5782 5781 5764 5758 5759 5768 5775 5779 5784 5795 5788 5791 5788 5791 5782 5795 5808 5797 5791 5783 5780 5775 5770 5762
5596 5603 5610 5629 5637 5643 5650 5661 5668 5675 5688 5697 5702 5699 5706 5726 5741 5751 5755 5763 5770 5775 5763 5760 5746 5746 5744 5772 5770 5759 5782 5792 5795 5799 5796 5786 5808 5802 5793 5791 5786 5779 5774 5768 5764